STARLINK-37130, 68604

Orbit data source: Space-Track

STARLINK-37130, 68604 is a payload satellite owned by SpaceX/Seattle (US) in SSO that was launched on Sun, 05 Apr 2026 UTC via an FALCON 9 launch vehicle from the Air Force Western Test Range (AFWTR). Payload-class satellites include a variety of spacecraft equipped with specific instruments for various scientific and technological missions. These include communications satellites like Starlink; space stations such as the ISS; scientific satellites like the Hubble; Earth observation satellites from companies like Planet Labs, Umbra, and HawkEye 360; GPS; miniature CubeSats for education and research; and military/defense satellites.

Loading next visibility...
Identifier
68604, 2026-073C
Orbit
SSO
Country
Flag of USUS
Related business
Manufacturer
SpaceX/Seattle
Mission
Operational spacecraft
Bus & Motor
STARLINK V2MO, Unknown motor
Mass
575 kg wet, ~530 kg dry
Launch date (UTC)
2026-04-05 (3 months ago)
Launch vehicle
FALCON 9
Launch site
Air Force Western Test Range (AFWTR)
Object type
Payload
Rocket body
Debris
Shape & HBR
Unknown shape, 2.1 m
Radar Cross Section
Large (>1 m²)

Expand to show TLE details & history
Last TLE update: 14 hours ago

TLE from 14 hours ago
0 STARLINK-37130
1 68604U 26073C   26171.27547737  .00015079  00000-0  46825-3 0  9991
2 68604  97.2861  10.5437 0002035  87.8623 272.2852 15.33459519 11604
Epoch: 2026-06-20T06:36Z
TLE epoch observation values (Epoch: 2026-06-20T06:36:41.244Z)
Latitude
-0.00012°
Longitude
2.87943°
Altitude
468.557 km
Speed
7.632 km/s
True Right ascension
00h 42m 10s
True Declination
0° 00' 00"
Sunlit
Object was in daylight at epoch
Visualization orbit readout
Latitude
Unknown
Longitude
Unknown
Altitude
Unknown
Speed
Unknown
Apparent Right ascension
Unknown
Apparent Declination
Unknown
Sunlit
N/A
Visualization observer readout
Local Sidereal Time
07:12:16
Azimuth
Unknown
Elevation
Unknown
Doppler factor
Unknown
Orbital elements
Apogee altitude
463.835 km
Perigee altitude
461.051 km
Semi-major axis
6,840.58 km
Eccentricity
0.0002
Inclination
97.2861°
RAAN
10.5437°
Arg. of periapsis
87.8623°
True anomaly
272.2619°
Mean anomaly
272.2852°
Eccentric anomaly
272.27355°
Mean motion
3.83622 °/min
Orbital period
93.84 mins
BSTAR
0.00046825
Loading maneuver chart data...
Computing Atmospheric mass density...
Loading historical data...
Loading historical data...
Loading historical data...
Loading historical data...
Loading historical data...
Loading historical data...
Loading historical data...

Documentation

Showing up to 5 results
|